| time (UTC) | temp F | wind direction | speed MPH | gust MPH | rain 1hr in | rain 24hr in | rain mn in | humidity % | barometer mb |
| 20260507060129 | 48 | 268 | 3.0 | 9.0 | 0.00 | 0.00 | 0.00 | 99 | 1005.8 |
| 20260507055628 | 48 | 273 | 2.0 | 11.0 | 0.00 | 0.00 | 0.00 | 98 | 1005.8 |
| 20260507055127 | 48 | 274 | 6.0 | 11.0 | 0.00 | 0.00 | 0.00 | 99 | 1005.8 |
| 20260507054555 | 48 | 283 | 5.0 | 10.0 | 0.00 | 0.00 | 0.00 | 99 | 1005.4 |
| 20260507054054 | 48 | 285 | 6.0 | 10.0 | 0.00 | 0.00 | 0.00 | 99 | 1005.5 |
| 20260507053553 | 48 | 261 | 5.0 | 8.0 | 0.00 | 0.00 | 0.00 | 99 | 1005.5 |
| 20260507053053 | 49 | 280 | 5.0 | 8.0 | 0.00 | 0.00 | 0.00 | 98 | 1005.5 |
| 20260507052521 | 49 | 283 | 4.0 | 10.0 | 0.00 | 0.00 | 0.00 | 98 | 1005.5 |
| 20260507052020 | 49 | 300 | 4.0 | 12.0 | 0.00 | 0.00 | 0.00 | 98 | 1005.8 |
| 20260507051519 | 49 | 287 | 7.0 | 12.0 | 0.00 | 0.00 | 0.00 | 99 | 1005.5 |
| 20260507051019 | 49 | 272 | 6.0 | 9.0 | 0.00 | 0.00 | 0.00 | 99 | 1005.5 |
| 20260507050344 | 49 | 273 | 4.0 | 7.0 | 0.00 | 0.00 | 0.00 | 99 | 1005.5 |
| 20260507045843 | 50 | 335 | 0.0 | 7.0 | 0.00 | 0.00 | 0.00 | 99 | 1005.5 |
| 20260507045342 | 50 | 251 | 5.0 | 7.0 | 0.00 | 0.00 | 0.00 | 99 | 1005.5 |
| 20260507044841 | 50 | 326 | 0.0 | 4.0 | 0.00 | 0.00 | 0.00 | 99 | 1005.8 |
| 20260507044340 | 50 | 326 | 0.0 | 4.0 | 0.00 | 0.00 | 0.00 | 99 | 1005.5 |
| 20260507043839 | 50 | 320 | 0.0 | 5.0 | 0.00 | 0.00 | 0.00 | 99 | 1005.8 |
| 20260507043336 | 50 | 308 | 4.0 | 5.0 | 0.00 | 0.00 | 0.00 | 99 | 1005.5 |
| 20260507042835 | 50 | 170 | 2.0 | 5.0 | 0.00 | 0.00 | 0.00 | 99 | 1005.5 |
| 20260507042232 | 50 | 337 | 3.0 | 6.0 | 0.00 | 0.00 | 0.00 | 99 | 1005.8 |
| 20260507041731 | 50 | 307 | 2.0 | 6.0 | 0.00 | 0.00 | 0.00 | 99 | 1005.5 |
| 20260507041230 | 51 | 300 | 1.0 | 7.0 | 0.00 | 0.00 | 0.00 | 99 | 1005.5 |
| 20260507040729 | 51 | 294 | 3.0 | 7.0 | 0.00 | 0.00 | 0.00 | 99 | 1005.5 |
| 20260507040229 | 51 | 272 | 3.0 | 7.0 | 0.00 | 0.00 | 0.00 | 99 | 1005.1 |
| 20260507035728 | 52 | 299 | 3.0 | 5.0 | 0.00 | 0.00 | 0.00 | 99 | 1005.2 |
| 20260507035156 | 52 | 315 | 2.0 | 7.0 | 0.00 | 0.00 | 0.00 | 99 | 1005.2 |
| 20260507034624 | 53 | 327 | 2.0 | 7.0 | 0.00 | 0.00 | 0.00 | 99 | 1005.2 |
| 20260507034052 | 53 | 296 | 0.0 | 7.0 | 0.00 | 0.00 | 0.00 | 99 | 1005.2 |
| 20260507033520 | 53 | 199 | 2.0 | 8.0 | 0.00 | 0.00 | 0.00 | 99 | 1005.2 |
| 20260507033019 | 53 | 307 | 4.0 | 9.0 | 0.00 | 0.00 | 0.00 | 99 | 1005.2 |
| 20260507032519 | 54 | 345 | 2.0 | 9.0 | 0.00 | 0.00 | 0.00 | 99 | 1005.2 |
| 20260507031947 | 54 | 323 | 6.0 | 13.0 | 0.00 | 0.00 | 0.00 | 99 | 1005.2 |
| 20260507031446 | 55 | 316 | 7.0 | 12.0 | 0.00 | 0.00 | 0.00 | 99 | 1005.2 |
| 20260507030914 | 55 | 299 | 4.0 | 8.0 | 0.00 | 0.00 | 0.00 | 100 | 1005.1 |
| 20260507030413 | 56 | 296 | 4.0 | 8.0 | 0.00 | 0.00 | 0.00 | 100 | 1005.1 |
| 20260507025912 | 56 | 299 | 4.0 | 10.0 | 0.00 | 0.00 | 0.00 | 100 | 1005.1 |
| 20260507025412 | 56 | 283 | 4.0 | 10.0 | 0.00 | 0.00 | 0.00 | 100 | 1004.8 |
| 20260507024910 | 56 | 303 | 4.0 | 8.0 | 0.00 | 0.00 | 0.00 | 100 | 1004.8 |
| 20260507024410 | 56 | 290 | 0.0 | 12.0 | 0.00 | 0.00 | 0.00 | 100 | 1004.5 |
| 20260507023836 | 57 | 302 | 7.0 | 12.0 | 0.00 | 0.00 | 0.00 | 100 | 1004.8 |
| 20260507023304 | 57 | 318 | 4.0 | 16.0 | 0.00 | 0.00 | 0.00 | 100 | 1004.8 |
| 20260507022803 | 57 | 319 | 4.0 | 16.0 | 0.00 | 0.00 | 0.00 | 100 | 1004.8 |
| 20260507022302 | 58 | 308 | 7.0 | 12.0 | 0.00 | 0.00 | 0.00 | 100 | 1004.5 |
| 20260507021801 | 58 | 316 | 5.0 | 11.0 | 0.00 | 0.00 | 0.00 | 100 | 1004.5 |
| 20260507021300 | 59 | 287 | 3.0 | 5.0 | 0.00 | 0.00 | 0.00 | 100 | 1004.5 |
| 20260507020759 | 59 | 278 | 3.0 | 5.0 | 0.00 | 0.00 | 0.00 | 100 | 1004.1 |
| 20260507020258 | 59 | 237 | 2.0 | 7.0 | 0.00 | 0.00 | 0.00 | 100 | 1004.5 |
| 20260507015757 | 59 | 218 | 3.0 | 8.0 | 0.00 | 0.00 | 0.00 | 100 | 1004.5 |
| 20260507015255 | 59 | 243 | 4.0 | 8.0 | 0.00 | 0.00 | 0.00 | 100 | 1004.5 |
| 20260507014754 | 59 | 238 | 3.0 | 9.0 | 0.00 | 0.00 | 0.00 | 100 | 1004.5 |
| 20260507014253 | 59 | 240 | 3.0 | 9.0 | 0.00 | 0.00 | 0.00 | 100 | 1004.5 |
| 20260507013752 | 59 | 221 | 3.0 | 8.0 | 0.00 | 0.00 | 0.00 | 100 | 1004.5 |
| 20260507013252 | 59 | 209 | 3.0 | 8.0 | 0.00 | 0.00 | 0.00 | 100 | 1004.5 |
| 20260507012751 | 59 | 190 | 1.0 | 9.0 | 0.00 | 0.00 | 0.00 | 100 | 1004.5 |
| 20260507012250 | 59 | 238 | 3.0 | 9.0 | 0.00 | 0.00 | 0.00 | 100 | 1004.5 |
| 20260507011749 | 59 | 242 | 4.0 | 8.0 | 0.00 | 0.00 | 0.00 | 100 | 1004.5 |
| 20260507011248 | 59 | 222 | 3.0 | 7.0 | 0.00 | 0.00 | 0.00 | 100 | 1004.5 |
| 20260507010747 | 59 | 187 | 4.0 | 10.0 | 0.00 | 0.00 | 0.00 | 100 | 1004.5 |
| 20260507010247 | 59 | 234 | 3.0 | 10.0 | 0.00 | 0.00 | 0.00 | 100 | 1004.5 |
| 20260507005746 | 59 | 238 | 4.0 | 9.0 | 0.00 | 0.00 | 0.00 | 100 | 1004.5 |
| 20260507005245 | 59 | 233 | 3.0 | 9.0 | 0.00 | 0.00 | 0.00 | 100 | 1004.5 |
| 20260507004744 | 59 | 274 | 4.0 | 10.0 | 0.00 | 0.00 | 0.00 | 100 | 1004.5 |
| 20260507004243 | 59 | 236 | 4.0 | 10.0 | 0.00 | 0.00 | 0.00 | 100 | 1004.4 |
| 20260507003742 | 59 | 240 | 4.0 | 10.0 | 0.00 | 0.00 | 0.00 | 100 | 1004.4 |
| 20260507003241 | 59 | 233 | 4.0 | 10.0 | 0.00 | 0.00 | 0.00 | 100 | 1004.4 |
| 20260507002741 | 59 | 243 | 5.0 | 14.0 | 0.00 | 0.00 | 0.00 | 100 | 1004.4 |
| 20260507002240 | 59 | 214 | 5.0 | 14.0 | 0.00 | 0.00 | 0.00 | 100 | 1004.4 |
| 20260507001739 | 59 | 245 | 6.0 | 12.0 | 0.00 | 0.00 | 0.00 | 100 | 1004.4 |
| 20260507001238 | 59 | 225 | 4.0 | 10.0 | 0.00 | 0.00 | 0.00 | 100 | 1004.4 |
| 20260507000737 | 59 | 216 | 3.0 | 10.0 | 0.00 | 0.00 | 0.00 | 100 | 1004.1 |
| 20260507000236 | 59 | 207 | 5.0 | 10.0 | 0.00 | 0.00 | 0.00 | 100 | 1004.1 |
| 20260506235735 | 59 | 212 | 3.0 | 10.0 | 0.00 | 0.00 | 0.00 | 100 | 1004.1 |
| 20260506235235 | 59 | 241 | 4.0 | 9.0 | 0.00 | 0.00 | 0.00 | 100 | 1004.1 |
| 20260506234734 | 59 | 233 | 4.0 | 11.0 | 0.00 | 0.00 | 0.00 | 100 | 1004.1 |
| 20260506234234 | 59 | 228 | 5.0 | 13.0 | 0.00 | 0.00 | 0.00 | 100 | 1004.1 |
| 20260506233701 | 59 | 210 | 4.0 | 13.0 | 0.00 | 0.00 | 0.00 | 100 | 1004.1 |
| 20260506233201 | 59 | 206 | 7.0 | 13.0 | 0.00 | 0.00 | 0.00 | 100 | 1004.4 |
| 20260506232659 | 59 | 217 | 5.0 | 17.0 | 0.00 | 0.00 | 0.00 | 100 | 1004.4 |
| 20260506232159 | 59 | 221 | 6.0 | 17.0 | 0.00 | 0.00 | 0.00 | 100 | 1004.4 |
| 20260506231658 | 59 | 224 | 4.0 | 8.0 | 0.00 | 0.00 | 0.00 | 100 | 1004.4 |
| 20260506231125 | 59 | 230 | 0.0 | 10.0 | 0.00 | 0.00 | 0.00 | 100 | 1004.4 |
| 20260506230625 | 59 | 227 | 4.0 | 10.0 | 0.00 | 0.00 | 0.00 | 100 | 1004.4 |
| 20260506230124 | 59 | 220 | 5.0 | 10.0 | 0.00 | 0.00 | 0.00 | 100 | 1004.1 |
| 20260506225623 | 59 | 237 | 3.0 | 10.0 | 0.00 | 0.00 | 0.00 | 100 | 1004.4 |
| 20260506225122 | 59 | 231 | 2.0 | 10.0 | 0.00 | 0.00 | 0.00 | 100 | 1004.4 |
| 20260506224550 | 59 | 229 | 4.0 | 13.0 | 0.00 | 0.00 | 0.00 | 100 | 1004.4 |
| 20260506224049 | 59 | 218 | 6.0 | 13.0 | 0.00 | 0.00 | 0.00 | 100 | 1004.4 |
| 20260506223548 | 59 | 205 | 7.0 | 11.0 | 0.00 | 0.00 | 0.00 | 100 | 1004.4 |
| 20260506223016 | 59 | 223 | 4.0 | 11.0 | 0.00 | 0.00 | 0.00 | 100 | 1004.4 |
| 20260506222515 | 59 | 197 | 3.0 | 11.0 | 0.00 | 0.00 | 0.00 | 100 | 1004.4 |
| 20260506222014 | 59 | 212 | 4.0 | 11.0 | 0.00 | 0.00 | 0.00 | 100 | 1004.4 |
| 20260506221514 | 60 | 229 | 6.0 | 13.0 | 0.00 | 0.00 | 0.00 | 100 | 1004.7 |
| 20260506220910 | 60 | 205 | 2.0 | 13.0 | 0.00 | 0.00 | 0.00 | 100 | 1004.7 |
| 20260506220409 | 60 | 215 | 4.0 | 10.0 | 0.00 | 0.00 | 0.00 | 100 | 1004.7 |
| 20260506215908 | 60 | 205 | 4.0 | 13.0 | 0.00 | 0.00 | 0.00 | 100 | 1004.7 |
| 20260506215408 | 60 | 215 | 6.0 | 13.0 | 0.00 | 0.00 | 0.00 | 100 | 1004.7 |
| 20260506214805 | 60 | 254 | 0.0 | 12.0 | 0.00 | 0.00 | 0.00 | 100 | 1004.7 |
| 20260506214304 | 60 | 205 | 4.0 | 14.0 | 0.00 | 0.00 | 0.00 | 100 | 1004.7 |
| 20260506213803 | 60 | 221 | 4.0 | 14.0 | 0.00 | 0.00 | 0.00 | 100 | 1004.7 |
| 20260506213302 | 60 | 189 | 2.0 | 10.0 | 0.00 | 0.00 | 0.00 | 100 | 1004.7 |
| 20260506212801 | 61 | 231 | 1.0 | 9.0 | 0.00 | 0.00 | 0.00 | 100 | 1004.7 |
| 20260506212300 | 61 | 196 | 4.0 | 10.0 | 0.00 | 0.00 | 0.00 | 100 | 1004.7 |
| 20260506211800 | 61 | 206 | 5.0 | 10.0 | 0.00 | 0.00 | 0.00 | 100 | 1005.1 |
| 20260506211156 | 61 | 215 | 4.0 | 10.0 | 0.00 | 0.00 | 0.00 | 100 | 1005.1 |
| 20260506210655 | 61 | 214 | 4.0 | 13.0 | 0.00 | 0.00 | 0.00 | 100 | 1005.1 |
| 20260506210155 | 61 | 204 | 5.0 | 13.0 | 0.00 | 0.00 | 0.00 | 100 | 1005.1 |
| 20260506205654 | 61 | 208 | 5.0 | 9.0 | 0.00 | 0.00 | 0.00 | 100 | 1005.1 |
| 20260506205153 | 61 | 200 | 2.0 | 10.0 | 0.00 | 0.00 | 0.00 | 100 | 1005.1 |
| 20260506204621 | 61 | 206 | 5.0 | 10.0 | 0.00 | 0.00 | 0.00 | 100 | 1005.1 |
| 20260506204120 | 61 | 216 | 6.0 | 10.0 | 0.00 | 0.00 | 0.00 | 100 | 1005.1 |
| 20260506203619 | 61 | 206 | 4.0 | 9.0 | 0.00 | 0.00 | 0.00 | 100 | 1005.4 |
| 20260506203119 | 61 | 221 | 3.0 | 7.0 | 0.00 | 0.00 | 0.00 | 100 | 1005.4 |
| 20260506202547 | 61 | 215 | 3.0 | 7.0 | 0.00 | 0.00 | 0.00 | 100 | 1005.4 |
| 20260506201943 | 61 | 218 | 3.0 | 7.0 | 0.00 | 0.00 | 0.00 | 99 | 1005.5 |
| 20260506201443 | 61 | 232 | 3.0 | 6.0 | 0.00 | 0.00 | 0.00 | 99 | 1005.5 |
| 20260506200942 | 61 | 217 | 3.0 | 6.0 | 0.00 | 0.00 | 0.00 | 99 | 1005.5 |
| 20260506200441 | 61 | 205 | 2.0 | 8.0 | 0.00 | 0.00 | 0.00 | 99 | 1005.5 |
| 20260506195940 | 61 | 218 | 2.0 | 8.0 | 0.00 | 0.00 | 0.00 | 99 | 1005.5 |
| 20260506195440 | 61 | 214 | 2.0 | 10.0 | 0.00 | 0.00 | 0.00 | 99 | 1005.5 |
| 20260506194908 | 61 | 213 | 5.0 | 10.0 | 0.00 | 0.00 | 0.00 | 99 | 1005.2 |
| 20260506194407 | 61 | 223 | 4.0 | 7.0 | 0.00 | 0.00 | 0.00 | 99 | 1005.2 |
| 20260506193906 | 61 | 216 | 3.0 | 6.0 | 0.00 | 0.00 | 0.00 | 99 | 1005.5 |
| 20260506193334 | 61 | 219 | 2.0 | 6.0 | 0.00 | 0.00 | 0.00 | 99 | 1005.5 |
| 20260506192834 | 61 | 178 | 1.0 | 8.0 | 0.00 | 0.00 | 0.00 | 99 | 1005.5 |
| 20260506192333 | 61 | 243 | 3.0 | 8.0 | 0.00 | 0.00 | 0.00 | 99 | 1005.5 |
| 20260506191832 | 61 | 222 | 2.0 | 7.0 | 0.00 | 0.00 | 0.00 | 99 | 1005.8 |
| 20260506191259 | 61 | 200 | 4.0 | 7.0 | 0.00 | 0.00 | 0.00 | 99 | 1005.8 |
| 20260506190759 | 61 | 206 | 5.0 | 7.0 | 0.00 | 0.00 | 0.00 | 99 | 1005.8 |
| 20260506190258 | 61 | 202 | 2.0 | 5.0 | 0.00 | 0.00 | 0.00 | 99 | 1006.2 |
| 20260506185757 | 61 | 245 | 2.0 | 6.0 | 0.00 | 0.00 | 0.00 | 99 | 1006.2 |
| 20260506185257 | 61 | 215 | 3.0 | 5.0 | 0.00 | 0.00 | 0.00 | 98 | 1006.2 |
| 20260506184622 | 61 | 200 | 1.0 | 5.0 | 0.00 | 0.00 | 0.00 | 98 | 1006.5 |
| 20260506184122 | 61 | 249 | 2.0 | 5.0 | 0.00 | 0.00 | 0.00 | 98 | 1006.2 |
| 20260506183621 | 61 | 234 | 3.0 | 7.0 | 0.00 | 0.00 | 0.00 | 98 | 1006.2 |
| 20260506183120 | 61 | 224 | 3.0 | 7.0 | 0.00 | 0.00 | 0.00 | 97 | 1006.2 |
| 20260506182548 | 62 | 190 | 1.0 | 8.0 | 0.00 | 0.00 | 0.00 | 97 | 1006.5 |
| 20260506182047 | 62 | 258 | 5.0 | 11.0 | 0.00 | 0.00 | 0.00 | 97 | 1006.5 |
| 20260506181515 | 62 | 266 | 4.0 | 11.0 | 0.00 | 0.00 | 0.00 | 96 | 1006.9 |
| 20260506181014 | 62 | 228 | 3.0 | 13.0 | 0.00 | 0.00 | 0.00 | 96 | 1006.9 |
| 20260506180513 | 63 | 272 | 8.0 | 13.0 | 0.00 | 0.00 | 0.00 | 95 | 1006.5 |
| 20260506180012 | 64 | 272 | 5.0 | 13.0 | 0.00 | 0.00 | 0.00 | 91 | 1006.5 |
| 20260506175512 | 65 | 247 | 7.0 | 11.0 | 0.00 | 0.00 | 0.00 | 86 | 1006.5 |
| 20260506175011 | 66 | 234 | 3.0 | 11.0 | 0.00 | 0.00 | 0.00 | 81 | 1006.2 |
| 20260506174510 | 67 | 228 | 5.0 | 16.0 | 0.00 | 0.00 | 0.00 | 76 | 1006.2 |
| 20260506174009 | 69 | 246 | 10.0 | 16.0 | 0.00 | 0.00 | 0.00 | 68 | 1005.9 |
| 20260506173407 | 69 | 217 | 6.0 | 14.0 | 0.00 | 0.00 | 0.00 | 64 | 1005.9 |
| 20260506172906 | 70 | 225 | 9.0 | 19.0 | 0.00 | 0.00 | 0.00 | 62 | 1005.9 |
| 20260506172405 | 70 | 227 | 7.0 | 23.0 | 0.00 | 0.00 | 0.00 | 62 | 1005.9 |
| 20260506171904 | 71 | 208 | 14.0 | 23.0 | 0.00 | 0.00 | 0.00 | 61 | 1005.9 |
| 20260506171402 | 71 | 213 | 5.0 | 16.0 | 0.00 | 0.00 | 0.00 | 61 | 1005.9 |
| 20260506170901 | 71 | 205 | 6.0 | 18.0 | 0.00 | 0.00 | 0.00 | 61 | 1005.9 |
| 20260506170329 | 71 | 213 | 8.0 | 18.0 | 0.00 | 0.00 | 0.00 | 61 | 1006.2 |
| 20260506165828 | 70 | 225 | 7.0 | 17.0 | 0.00 | 0.00 | 0.00 | 62 | 1006.2 |
| 20260506165327 | 70 | 211 | 8.0 | 19.0 | 0.00 | 0.00 | 0.00 | 62 | 1006.2 |
| 20260506164755 | 70 | 228 | 8.0 | 19.0 | 0.00 | 0.00 | 0.00 | 61 | 1006.6 |
| 20260506164254 | 70 | 212 | 7.0 | 18.0 | 0.00 | 0.00 | 0.00 | 62 | 1006.6 |
| 20260506163754 | 70 | 218 | 8.0 | 18.0 | 0.00 | 0.00 | 0.00 | 63 | 1006.6 |
| 20260506163253 | 70 | 216 | 5.0 | 11.0 | 0.00 | 0.00 | 0.00 | 65 | 1006.6 |
| 20260506162752 | 70 | 204 | 5.0 | 13.0 | 0.00 | 0.00 | 0.00 | 65 | 1006.9 |
| 20260506162251 | 70 | 206 | 4.0 | 13.0 | 0.00 | 0.00 | 0.00 | 65 | 1006.9 |
| 20260506161750 | 69 | 210 | 6.0 | 18.0 | 0.00 | 0.00 | 0.00 | 66 | 1006.9 |
| 20260506161250 | 69 | 221 | 6.0 | 18.0 | 0.00 | 0.00 | 0.00 | 65 | 1007.2 |
| 20260506160748 | 69 | 216 | 7.0 | 13.0 | 0.00 | 0.00 | 0.00 | 66 | 1007.2 |
| 20260506160248 | 69 | 242 | 7.0 | 11.0 | 0.00 | 0.00 | 0.00 | 67 | 1007.6 |
| 20260506155716 | 69 | 238 | 6.0 | 11.0 | 0.00 | 0.00 | 0.00 | 67 | 1007.6 |
| 20260506155144 | 69 | 210 | 7.0 | 11.0 | 0.00 | 0.00 | 0.00 | 68 | 1007.6 |
| 20260506154643 | 69 | 245 | 6.0 | 14.0 | 0.00 | 0.00 | 0.00 | 67 | 1007.9 |
| 20260506154143 | 69 | 224 | 7.0 | 14.0 | 0.00 | 0.00 | 0.00 | 66 | 1007.9 |
| 20260506153642 | 69 | 250 | 4.0 | 12.0 | 0.00 | 0.00 | 0.00 | 68 | 1007.9 |
| 20260506153141 | 68 | 223 | 6.0 | 19.0 | 0.00 | 0.00 | 0.00 | 68 | 1008.2 |
| 20260506152640 | 68 | 260 | 9.0 | 19.0 | 0.00 | 0.00 | 0.00 | 68 | 1008.2 |
| 20260506152139 | 68 | 221 | 5.0 | 13.0 | 0.00 | 0.00 | 0.00 | 69 | 1008.2 |
| 20260506151607 | 68 | 214 | 6.0 | 12.0 | 0.00 | 0.00 | 0.00 | 69 | 1008.2 |
| 20260506151106 | 68 | 218 | 7.0 | 13.0 | 0.00 | 0.00 | 0.00 | 69 | 1007.9 |
| 20260506150606 | 68 | 209 | 7.0 | 13.0 | 0.00 | 0.00 | 0.00 | 69 | 1007.9 |
| 20260506150105 | 69 | 203 | 7.0 | 13.0 | 0.00 | 0.00 | 0.00 | 69 | 1008.2 |
| 20260506145604 | 69 | 250 | 5.0 | 13.0 | 0.00 | 0.00 | 0.00 | 68 | 1008.3 |
| 20260506145104 | 69 | 241 | 7.0 | 15.0 | 0.00 | 0.00 | 0.00 | 67 | 1007.9 |
| 20260506144603 | 69 | 195 | 6.0 | 15.0 | 0.00 | 0.00 | 0.00 | 70 | 1007.9 |
| 20260506144102 | 68 | 230 | 6.0 | 13.0 | 0.00 | 0.00 | 0.00 | 69 | 1007.9 |
| 20260506143601 | 68 | 221 | 6.0 | 14.0 | 0.00 | 0.00 | 0.00 | 70 | 1007.9 |
| 20260506143100 | 68 | 230 | 5.0 | 16.0 | 0.00 | 0.00 | 0.00 | 71 | 1007.9 |
| 20260506142600 | 68 | 217 | 6.0 | 16.0 | 0.00 | 0.00 | 0.00 | 72 | 1007.9 |
| 20260506142059 | 67 | 207 | 6.0 | 13.0 | 0.00 | 0.00 | 0.00 | 72 | 1007.9 |
| 20260506141558 | 67 | 215 | 3.0 | 12.0 | 0.00 | 0.00 | 0.00 | 73 | 1007.9 |
| 20260506141057 | 67 | 214 | 5.0 | 8.0 | 0.00 | 0.00 | 0.00 | 75 | 1007.9 |
| 20260506140556 | 66 | 275 | 4.0 | 10.0 | 0.00 | 0.00 | 0.00 | 75 | 1007.9 |
| 20260506140024 | 66 | 204 | 3.0 | 11.0 | 0.00 | 0.00 | 0.00 | 77 | 1007.9 |
| 20260506135523 | 66 | 214 | 4.0 | 11.0 | 0.00 | 0.00 | 0.00 | 77 | 1007.9 |
| 20260506135022 | 65 | 223 | 5.0 | 11.0 | 0.00 | 0.00 | 0.00 | 77 | 1007.9 |
| 20260506134521 | 65 | 206 | 7.0 | 11.0 | 0.00 | 0.00 | 0.00 | 78 | 1007.9 |
| 20260506134021 | 65 | 260 | 2.0 | 11.0 | 0.00 | 0.00 | 0.00 | 79 | 1008.3 |
| 20260506133520 | 64 | 248 | 4.0 | 13.0 | 0.00 | 0.00 | 0.00 | 79 | 1008.3 |
| 20260506133019 | 64 | 235 | 5.0 | 13.0 | 0.00 | 0.00 | 0.00 | 80 | 1008.3 |
| 20260506132518 | 64 | 251 | 6.0 | 13.0 | 0.00 | 0.00 | 0.00 | 80 | 1008.3 |
| 20260506132017 | 64 | 219 | 6.0 | 12.0 | 0.00 | 0.00 | 0.00 | 80 | 1008.3 |
| 20260506131445 | 64 | 238 | 5.0 | 12.0 | 0.00 | 0.00 | 0.00 | 80 | 1008.6 |
| 20260506130913 | 64 | 223 | 7.0 | 12.0 | 0.00 | 0.00 | 0.00 | 80 | 1008.3 |
| 20260506130412 | 64 | 225 | 6.0 | 12.0 | 0.00 | 0.00 | 0.00 | 80 | 1008.6 |
| 20260506125912 | 64 | 208 | 3.0 | 12.0 | 0.00 | 0.00 | 0.00 | 80 | 1008.6 |
| 20260506125411 | 64 | 242 | 5.0 | 12.0 | 0.00 | 0.00 | 0.00 | 81 | 1008.3 |
| 20260506124839 | 63 | 220 | 5.0 | 12.0 | 0.00 | 0.00 | 0.00 | 81 | 1008.3 |
| 20260506124338 | 63 | 242 | 3.0 | 9.0 | 0.00 | 0.00 | 0.00 | 82 | 1008.3 |
| 20260506123837 | 63 | 213 | 5.0 | 9.0 | 0.00 | 0.00 | 0.00 | 82 | 1008.3 |
| 20260506123337 | 63 | 226 | 5.0 | 8.0 | 0.00 | 0.00 | 0.00 | 82 | 1008.6 |
| 20260506122836 | 63 | 215 | 4.0 | 8.0 | 0.00 | 0.00 | 0.00 | 82 | 1008.6 |
| 20260506122335 | 63 | 202 | 4.0 | 10.0 | 0.00 | 0.00 | 0.00 | 82 | 1008.6 |
| 20260506121834 | 62 | 213 | 4.0 | 10.0 | 0.00 | 0.00 | 0.00 | 82 | 1008.6 |
| 20260506121333 | 62 | 231 | 6.0 | 9.0 | 0.00 | 0.00 | 0.00 | 82 | 1008.6 |
| 20260506120833 | 62 | 229 | 3.0 | 8.0 | 0.00 | 0.00 | 0.00 | 84 | 1008.6 |
| 20260506120301 | 62 | 217 | 6.0 | 8.0 | 0.00 | 0.00 | 0.00 | 85 | 1008.6 |
| 20260506115800 | 61 | 224 | 4.0 | 9.0 | 0.00 | 0.00 | 0.00 | 85 | 1008.6 |
| 20260506115259 | 61 | 215 | 4.0 | 10.0 | 0.00 | 0.00 | 0.00 | 86 | 1008.9 |
| 20260506114758 | 61 | 242 | 6.0 | 10.0 | 0.00 | 0.00 | 0.00 | 85 | 1008.9 |
| 20260506114257 | 61 | 198 | 3.0 | 9.0 | 0.00 | 0.00 | 0.00 | 85 | 1008.9 |
| 20260506113754 | 61 | 244 | 6.0 | 9.0 | 0.00 | 0.00 | 0.00 | 85 | 1008.9 |
| 20260506113253 | 61 | 243 | 4.0 | 7.0 | 0.00 | 0.00 | 0.00 | 86 | 1008.9 |
| 20260506112752 | 60 | 238 | 3.0 | 5.0 | 0.00 | 0.00 | 0.00 | 89 | 1008.6 |
| 20260506112251 | 59 | 241 | 3.0 | 5.0 | 0.00 | 0.00 | 0.00 | 92 | 1008.9 |
| 20260506111750 | 59 | 232 | 3.0 | 6.0 | 0.00 | 0.00 | 0.00 | 92 | 1009.0 |
| 20260506111250 | 58 | 244 | 4.0 | 6.0 | 0.00 | 0.00 | 0.00 | 92 | 1009.0 |
| 20260506110749 | 58 | 205 | 2.0 | 4.0 | 0.00 | 0.00 | 0.00 | 94 | 1009.0 |
| 20260506110248 | 57 | 265 | 1.0 | 4.0 | 0.00 | 0.00 | 0.00 | 95 | 1009.3 |
| 20260506105747 | 57 | 293 | 3.0 | 4.0 | 0.00 | 0.00 | 0.00 | 95 | 1009.3 |
| 20260506105243 | 57 | 268 | 1.0 | 4.0 | 0.00 | 0.00 | 0.00 | 94 | 1009.0 |
| 20260506104742 | 57 | 240 | 2.0 | 4.0 | 0.00 | 0.00 | 0.00 | 94 | 1009.0 |
| 20260506104241 | 57 | 284 | 2.0 | 5.0 | 0.00 | 0.00 | 0.00 | 94 | 1009.3 |
| 20260506103741 | 57 | 269 | 3.0 | 6.0 | 0.00 | 0.00 | 0.00 | 95 | 1009.0 |
| 20260506103208 | 57 | 223 | 2.0 | 8.0 | 0.00 | 0.00 | 0.00 | 95 | 1009.0 |
| 20260506102708 | 56 | 239 | 3.0 | 8.0 | 0.00 | 0.00 | 0.00 | 95 | 1009.0 |
| 20260506102207 | 56 | 187 | 2.0 | 9.0 | 0.00 | 0.00 | 0.00 | 96 | 1009.3 |
| 20260506101706 | 56 | 215 | 3.0 | 9.0 | 0.00 | 0.00 | 0.00 | 96 | 1009.0 |
| 20260506101205 | 55 | 216 | 5.0 | 10.0 | 0.00 | 0.00 | 0.00 | 96 | 1008.6 |
| 20260506100704 | 55 | 211 | 3.0 | 10.0 | 0.00 | 0.00 | 0.00 | 96 | 1009.0 |
| 20260506100204 | 54 | 222 | 5.0 | 9.0 | 0.00 | 0.00 | 0.00 | 97 | 1009.0 |
| 20260506095703 | 54 | 215 | 4.0 | 9.0 | 0.00 | 0.00 | 0.00 | 97 | 1009.0 |
| 20260506095202 | 53 | 221 | 4.0 | 9.0 | 0.00 | 0.00 | 0.00 | 97 | 1008.6 |
| 20260506094630 | 53 | 235 | 3.0 | 7.0 | 0.00 | 0.00 | 0.00 | 97 | 1008.6 |
| 20260506094129 | 53 | 237 | 2.0 | 5.0 | 0.00 | 0.00 | 0.00 | 97 | 1008.9 |
| 20260506093628 | 53 | 243 | 1.0 | 3.0 | 0.00 | 0.00 | 0.00 | 97 | 1008.6 |
| 20260506093128 | 53 | 228 | 1.0 | 3.0 | 0.00 | 0.00 | 0.00 | 96 | 1008.6 |
| 20260506092627 | 53 | 241 | 1.0 | 4.0 | 0.00 | 0.00 | 0.00 | 96 | 1009.0 |
| 20260506092054 | 53 | 236 | 2.0 | 4.0 | 0.00 | 0.00 | 0.00 | 96 | 1008.6 |
| 20260506091553 | 53 | 242 | 2.0 | 5.0 | 0.00 | 0.00 | 0.00 | 96 | 1008.6 |
| 20260506091052 | 54 | 225 | 2.0 | 5.0 | 0.00 | 0.00 | 0.00 | 95 | 1008.6 |
| 20260506090552 | 54 | 228 | 2.0 | 5.0 | 0.00 | 0.00 | 0.00 | 95 | 1008.6 |
| 20260506090051 | 54 | 234 | 1.0 | 4.0 | 0.00 | 0.00 | 0.00 | 94 | 1008.6 |
| 20260506085550 | 54 | 226 | 2.0 | 4.0 | 0.00 | 0.00 | 0.00 | 93 | 1008.6 |
| 20260506085018 | 55 | 251 | 2.0 | 4.0 | 0.00 | 0.00 | 0.00 | 92 | 1008.6 |
| 20260506084517 | 55 | 230 | 1.0 | 4.0 | 0.00 | 0.00 | 0.00 | 92 | 1009.0 |
| 20260506084016 | 55 | 271 | 2.0 | 4.0 | 0.00 | 0.00 | 0.00 | 91 | 1009.0 |
| 20260506083516 | 55 | 286 | 2.0 | 5.0 | 0.00 | 0.00 | 0.00 | 90 | 1009.0 |
| 20260506083015 | 56 | 271 | 2.0 | 5.0 | 0.00 | 0.00 | 0.00 | 90 | 1009.0 |
| 20260506082514 | 56 | 272 | 2.0 | 5.0 | 0.00 | 0.00 | 0.00 | 89 | 1008.7 |
| 20260506082013 | 56 | 272 | 1.0 | 5.0 | 0.00 | 0.00 | 0.00 | 88 | 1008.7 |
| 20260506081441 | 57 | 258 | 1.0 | 5.0 | 0.00 | 0.00 | 0.00 | 87 | 1008.7 |
| 20260506080909 | 57 | 225 | 3.0 | 7.0 | 0.00 | 0.00 | 0.00 | 87 | 1008.7 |
| 20260506080408 | 57 | 222 | 4.0 | 7.0 | 0.00 | 0.00 | 0.00 | 86 | 1008.7 |
| 20260506073332 | 58 | 273 | 3.0 | 5.0 | 0.00 | 0.00 | 0.00 | 82 | 1008.7 |
| 20260506072800 | 59 | 282 | 2.0 | 4.0 | 0.00 | 0.00 | 0.00 | 82 | 1008.7 |
| 20260506072156 | 59 | 285 | 3.0 | 4.0 | 0.00 | 0.00 | 0.00 | 81 | 1008.7 |
| 20260506071656 | 59 | 281 | 2.0 | 5.0 | 0.00 | 0.00 | 0.00 | 81 | 1008.7 |
| 20260506071155 | 59 | 289 | 1.0 | 5.0 | 0.00 | 0.00 | 0.00 | 81 | 1008.7 |
| 20260506070654 | 59 | 287 | 2.0 | 4.0 | 0.00 | 0.00 | 0.00 | 80 | 1008.7 |
| 20260506070153 | 59 | 280 | 2.0 | 6.0 | 0.00 | 0.00 | 0.00 | 80 | 1008.3 |
| 20260506062115 | 59 | 213 | 2.0 | 6.0 | 0.00 | 0.00 | 0.00 | 79 | 1008.3 |
| 20260506061615 | 59 | 247 | 3.0 | 5.0 | 0.00 | 0.00 | 0.00 | 79 | 1008.3 |
| 20260506061114 | 59 | 245 | 3.0 | 5.0 | 0.00 | 0.00 | 0.00 | 79 | 1008.3 |